^^
Your Local Weather - Clay, NY Station Historical Data
Daily Summary for January 4, 2018 Units:  Metric    English   Both
« Previous Day
Next Day »
Daily Weekly Monthly Yearly Custom
  High: Low: Average:
Temperature: -6.2 °C -12.8 °C -8.9 °C
Dew Point: -7.9 °C -16.6 °C -11.6 °C
Humidity: 89% 62% 81%
Wind Speed: 6.4km/h 0km/h 1.9km/h
Wind Gust: 12.9km/h - -
Wind- - NW
Pressure: 1015.1 hPa 1002.9 hPa -
Precipitation: 0 mm    
Historical Graphs
 
 
Tabular Data for January 4, 2018
Time Temperature Dew Point Pressure Wind Wind Speed Wind Gust Humidity Rainfall Rate (Hourly) solar
00:08 -10.6 °C -16.5 °C 1015.1 hPa Calm   1.6 km/h 62% 0 mm 0 W/m2
00:14 -10.9 °C -16.6 °C 1014.8 hPa Calm     63% 0 mm 0 W/m2
00:26 -11.2 °C -16.3 °C 1014.4 hPa Calm     66% 0 mm 0 W/m2
00:28 -11.2 °C -16.1 °C 1014.4 hPa Calm     67% 0 mm 0 W/m2
00:40 -11.3 °C -16.1 °C 1014.4 hPa Calm     68% 0 mm 0 W/m2
00:42 -11.3 °C -16.1 °C 1014.4 hPa Calm     68% 0 mm 0 W/m2
00:48 -11.4 °C -15.9 °C 1014.1 hPa Calm     69% 0 mm 0 W/m2
00:56 -11.3 °C -15.7 °C 1014.1 hPa Calm     70% 0 mm 0 W/m2
01:02 -11.3 °C -15.7 °C 1014.1 hPa Calm     70% 0 mm 0 W/m2
01:04 -11.3 °C -15.8 °C 1014.1 hPa Calm     69% 0 mm 0 W/m2
01:08 -11.3 °C -15.8 °C 1013.8 hPa Calm     69% 0 mm 0 W/m2
01:18 -11.3 °C -15.8 °C 1013.8 hPa Calm   1.6 km/h 69% 0 mm 0 W/m2
01:24 -11.2 °C -15.7 °C 1013.8 hPa Calm     69% 0 mm 0 W/m2
01:30 -11.1 °C -15.4 °C 1013.4 hPa Calm     70% 0 mm 0 W/m2
01:34 -11 °C -15.2 °C 1013.8 hPa Calm     71% 0 mm 0 W/m2
01:42 -10.9 °C -15.2 °C 1013.8 hPa Calm     71% 0 mm 0 W/m2
01:48 -10.8 °C -14.9 °C 1013.8 hPa Calm     72% 0 mm 0 W/m2
01:52 -10.7 °C -14.8 °C 1013.8 hPa Calm     72% 0 mm 0 W/m2
01:56 -10.6 °C -14.5 °C 1013.8 hPa Calm     73% 0 mm 0 W/m2
02:02 -10.5 °C -14.6 °C 1014.1 hPa Calm   1.6 km/h 72% 0 mm 0 W/m2
02:08 -10.4 °C -14.4 °C 1014.1 hPa Calm   3.2 km/h 72% 0 mm 0 W/m2
02:14 -10.2 °C -14.5 °C 1014.1 hPa Calm     71% 0 mm 0 W/m2
02:18 -10.2 °C -14.6 °C 1014.1 hPa Calm     70% 0 mm 0 W/m2
02:20 -10.1 °C -14.6 °C 1014.1 hPa Calm     70% 0 mm 0 W/m2
02:24 -10.1 °C -14.3 °C 1014.1 hPa Calm     71% 0 mm 0 W/m2
02:30 -10.1 °C -14.3 °C 1014.1 hPa Calm     71% 0 mm 0 W/m2
02:36 -10.1 °C -14.3 °C 1013.8 hPa Calm     71% 0 mm 0 W/m2
02:42 -10.1 °C -14.5 °C 1013.8 hPa Calm     70% 0 mm 0 W/m2
02:48 -9.9 °C -14.4 °C 1013.4 hPa Calm     70% 0 mm 0 W/m2
02:50 -9.9 °C -14.4 °C 1013.4 hPa Calm     70% 0 mm 0 W/m2
02:52 -10 °C -14.4 °C 1013.4 hPa Calm     70% 0 mm 0 W/m2
03:00 -9.9 °C -14.4 °C 1013.4 hPa Calm     70% 0 mm 0 W/m2
03:06 -10.1 °C -14.3 °C 1013.4 hPa Calm     71% 0 mm 0 W/m2
03:12 -10 °C -14.1 °C 1013.4 hPa Calm     72% 0 mm 0 W/m2
03:18 -10 °C -14.1 °C 1013.4 hPa Calm     72% 0 mm 0 W/m2
03:24 -9.9 °C -14.1 °C 1013.4 hPa Calm     72% 0 mm 0 W/m2
03:28 -9.9 °C -14 °C 1013.4 hPa Calm     72% 0 mm 0 W/m2
03:34 -9.8 °C -13.8 °C 1013.4 hPa Calm     73% 0 mm 0 W/m2
03:38 -9.8 °C -13.8 °C 1013.1 hPa Calm     73% 0 mm 0 W/m2
03:44 -9.8 °C -13.8 °C 1013.1 hPa Calm     73% 0 mm 0 W/m2
03:50 -9.8 °C -13.8 °C 1013.1 hPa Calm     73% 0 mm 0 W/m2
03:56 -9.8 °C -13.6 °C 1013.1 hPa Calm     74% 0 mm 0 W/m2
04:08 -9.8 °C -13.6 °C 1013.1 hPa Calm     74% 0 mm 0 W/m2
04:12 -9.7 °C -13.5 °C 1013.1 hPa Calm     74% 0 mm 0 W/m2
04:18 -9.7 °C -13.6 °C 1012.8 hPa Calm   1.6 km/h 73% 0 mm 0 W/m2
04:24 -9.6 °C -13.6 °C 1012.8 hPa Calm     73% 0 mm 0 W/m2
04:26 -9.6 °C -13.5 °C 1012.8 hPa Calm     73% 0 mm 0 W/m2
04:30 -9.6 °C -13.5 °C 1012.4 hPa Calm     73% 0 mm 0 W/m2
04:36 -9.6 °C -13.5 °C 1012.8 hPa Calm     73% 0 mm 0 W/m2
04:42 -9.6 °C -13.5 °C 1012.4 hPa Calm     73% 0 mm 0 W/m2
04:48 -9.6 °C -13.6 °C 1012.8 hPa Calm     73% 0 mm 0 W/m2
04:56 -9.6 °C -13.6 °C 1012.4 hPa Calm     73% 0 mm 0 W/m2
05:04 -9.6 °C -13.5 °C 1012.4 hPa Calm     73% 0 mm 0 W/m2
05:10 -9.5 °C -13.6 °C 1012.1 hPa Calm     72% 0 mm 0 W/m2
05:12 -9.5 °C -13.6 °C 1012.1 hPa Calm     72% 0 mm 0 W/m2
05:18 -9.5 °C -13.4 °C 1012.1 hPa Calm     73% 0 mm 0 W/m2
05:30 -9.5 °C -13.4 °C 1011.7 hPa Calm     73% 0 mm 0 W/m2
05:36 -9.5 °C -13.4 °C 1011.7 hPa Calm     73% 0 mm 0 W/m2
05:44 -9.5 °C -13.4 °C 1011.4 hPa Calm     73% 0 mm 0 W/m2
05:46 -9.5 °C -13.4 °C 1011.4 hPa Calm     73% 0 mm 0 W/m2
05:52 -9.6 °C -13.5 °C 1011.4 hPa Calm     73% 0 mm 0 W/m2
05:58 -9.6 °C -13.5 °C 1011.1 hPa Calm     73% 0 mm 0 W/m2
06:06 -9.6 °C -13.4 °C 1011.1 hPa Calm     74% 0 mm 0 W/m2
06:12 -9.6 °C -13.4 °C 1010.7 hPa Calm     74% 0 mm 0 W/m2
06:16 -9.6 °C -13.4 °C 1010.7 hPa Calm     74% 0 mm 0 W/m2
06:32 -9.6 °C -13.2 °C 1010.4 hPa Calm     75% 0 mm 0 W/m2
06:36 -9.6 °C -13.2 °C 1010.4 hPa Calm     75% 0 mm 0 W/m2
06:42 -9.6 °C -13.2 °C 1010 hPa Calm     75% 0 mm 0 W/m2
06:48 -9.7 °C -13.2 °C 1010 hPa Calm     76% 0 mm 0 W/m2
06:54 -9.8 °C -13.1 °C 1010 hPa Calm     77% 0 mm 0 W/m2
07:00 -9.8 °C -13.1 °C 1010.4 hPa Calm     77% 0 mm 0 W/m2
07:06 -9.9 °C -13.2 °C 1010.4 hPa Calm     77% 0 mm 0 W/m2
07:12 -9.9 °C -13.2 °C 1010.4 hPa Calm     77% 0 mm 0 W/m2
07:18 -9.9 °C -13.1 °C 1010.4 hPa Calm     78% 0 mm 0 W/m2
07:24 -9.9 °C -13.2 °C 1010 hPa Calm     77% 0 mm 0 W/m2
07:30 -9.9 °C -13.1 °C 1009.7 hPa Calm     78% 0 mm 0 W/m2
07:36 -9.8 °C -12.9 °C 1009.4 hPa Calm     78% 0 mm 0 W/m2
07:42 -9.8 °C -12.9 °C 1009.4 hPa Calm     78% 0 mm 0 W/m2
07:48 -9.7 °C -12.8 °C 1009.4 hPa Calm     78% 0 mm 5 W/m2
07:54 -9.7 °C -12.6 °C 1009 hPa Calm     79% 0 mm 9 W/m2
08:02 -9.6 °C -12.6 °C 1008.7 hPa Calm     79% 0 mm 18 W/m2
08:08 -9.6 °C -12.6 °C 1008.7 hPa Calm     79% 0 mm 26 W/m2
08:14 -9.6 °C -12.5 °C 1008.7 hPa Calm     79% 0 mm 26 W/m2
08:16 -9.5 °C -12.4 °C 1008.7 hPa Calm     79% 0 mm 26 W/m2
08:22 -9.4 °C -12.4 °C 1008.4 hPa Calm     79% 0 mm 28 W/m2
08:28 -9.3 °C -12.3 °C 1008.4 hPa Calm     79% 0 mm 32 W/m2
08:34 -9.3 °C -12.2 °C 1008.4 hPa Calm     79% 0 mm 33 W/m2
08:42 -9.2 °C -12.2 °C 1008.4 hPa Calm     79% 0 mm 33 W/m2
08:48 -9.1 °C -11.9 °C 1008.4 hPa Calm   1.6 km/h 80% 0 mm 35 W/m2
08:54 -9.1 °C -11.9 °C 1008.4 hPa Calm     80% 0 mm 37 W/m2
09:00 -8.9 °C -11.6 °C 1008.7 hPa Calm   1.6 km/h 81% 0 mm 33 W/m2
09:08 -8.9 °C -11.4 °C 1008.7 hPa Calm   1.6 km/h 82% 0 mm 35 W/m2
09:14 -8.8 °C -11.3 °C 1008.7 hPa SSE 1.6 km/h 3.2 km/h 82% 0 mm 37 W/m2
09:22 -8.7 °C -11.1 °C 1008.7 hPa Calm   1.6 km/h 83% 0 mm 49 W/m2
09:28 -8.6 °C -11 °C 1008.7 hPa Calm   1.6 km/h 83% 0 mm 49 W/m2
09:40 -8.3 °C -10.6 °C 1008.4 hPa Calm   3.2 km/h 84% 0 mm 54 W/m2
09:46 -8.2 °C -10.4 °C 1008 hPa Calm   3.2 km/h 84% 0 mm 63 W/m2
09:48 -8.2 °C -10.4 °C 1008 hPa Calm   3.2 km/h 84% 0 mm 69 W/m2
10:00 -7.9 °C -10.2 °C 1008 hPa WSW 1.6 km/h 1.6 km/h 84% 0 mm 60 W/m2
10:06 -7.8 °C -10.1 °C 1008 hPa WSW 1.6 km/h 3.2 km/h 84% 0 mm 49 W/m2
10:08 -7.8 °C -10 °C 1008 hPa WSW 1.6 km/h 3.2 km/h 84% 0 mm 53 W/m2
10:14 -7.7 °C -9.9 °C 1008 hPa WSW 1.6 km/h 1.6 km/h 84% 0 mm 56 W/m2
10:16 -7.7 °C -9.9 °C 1008 hPa WSW 1.6 km/h 1.6 km/h 84% 0 mm 56 W/m2
10:22 -7.6 °C -9.8 °C 1008 hPa WSW 1.6 km/h 1.6 km/h 84% 0 mm 58 W/m2
10:24 -7.6 °C -9.8 °C 1008 hPa WSW 1.6 km/h 1.6 km/h 84% 0 mm 60 W/m2
10:30 -7.5 °C -9.7 °C 1008 hPa WSW 1.6 km/h 1.6 km/h 84% 0 mm 56 W/m2
10:40 -7.4 °C -9.6 °C 1007.7 hPa Calm     84% 0 mm 56 W/m2
10:46 -7.3 °C -9.4 °C 1007.7 hPa Calm   1.6 km/h 85% 0 mm 62 W/m2
11:00 -7.2 °C -9.4 °C 1007.3 hPa WSW 1.6 km/h 1.6 km/h 84% 0 mm 60 W/m2
11:06 -7.1 °C -9.3 °C 1007 hPa Calm   1.6 km/h 84% 0 mm 65 W/m2
11:12 -7.1 °C -9.2 °C 1007 hPa Calm   1.6 km/h 85% 0 mm 69 W/m2
11:20 -6.9 °C -9.1 °C 1007 hPa NW 1.6 km/h 1.6 km/h 84% 0 mm 84 W/m2
11:26 -6.8 °C -8.9 °C 1006.7 hPa NW 1.6 km/h 3.2 km/h 85% 0 mm 84 W/m2
11:32 -6.8 °C -8.9 °C 1006.7 hPa NW 1.6 km/h 1.6 km/h 85% 0 mm 81 W/m2
11:38 -6.8 °C -8.9 °C 1006.3 hPa NW 3.2 km/h 4.8 km/h 85% 0 mm 93 W/m2
11:44 -6.8 °C -8.9 °C 1006 hPa NW 3.2 km/h 4.8 km/h 85% 0 mm 91 W/m2
11:50 -6.8 °C -8.9 °C 1006 hPa NW 3.2 km/h 4.8 km/h 85% 0 mm 98 W/m2
11:56 -6.9 °C -9 °C 1006 hPa NNW 4.8 km/h 6.4 km/h 85% 0 mm 104 W/m2
12:04 -6.9 °C -9.1 °C 1005.6 hPa NW 4.8 km/h 4.8 km/h 85% 0 mm 93 W/m2
12:06 -6.9 °C -9.1 °C 1005.6 hPa NW 3.2 km/h 4.8 km/h 85% 0 mm 93 W/m2
12:12 -7 °C -8.9 °C 1005.3 hPa NW 4.8 km/h 11.3 km/h 86% 0 mm 90 W/m2
12:14 -7.1 °C -9 °C 1005.3 hPa NW 4.8 km/h 11.3 km/h 86% 0 mm 90 W/m2
12:22 -7.1 °C -9 °C 1005.3 hPa NNW 4.8 km/h 4.8 km/h 86% 0 mm 102 W/m2
12:28 -7.1 °C -9.1 °C 1005.3 hPa NNW 4.8 km/h 4.8 km/h 86% 0 mm 97 W/m2
12:34 -7.1 °C -9.1 °C 1005 hPa NNW 4.8 km/h 4.8 km/h 86% 0 mm 104 W/m2
12:38 -7.1 °C -8.8 °C 1005 hPa NNW 4.8 km/h 6.4 km/h 87% 0 mm 105 W/m2
12:42 -7.1 °C -8.8 °C 1005 hPa North 3.2 km/h 4.8 km/h 87% 0 mm 116 W/m2
12:50 -6.9 °C -8.7 °C 1005 hPa North 1.6 km/h 1.6 km/h 87% 0 mm 109 W/m2
12:56 -6.9 °C -8.7 °C 1004.6 hPa NNW 1.6 km/h 4.8 km/h 87% 0 mm 111 W/m2
13:02 -6.9 °C -8.7 °C 1004.6 hPa NW 4.8 km/h 4.8 km/h 87% 0 mm 107 W/m2
13:08 -6.8 °C -8.6 °C 1004.3 hPa NW 4.8 km/h 4.8 km/h 87% 0 mm 120 W/m2
13:14 -6.8 °C -8.6 °C 1004.3 hPa NNW 3.2 km/h 6.4 km/h 87% 0 mm 111 W/m2
13:22 -6.7 °C -8.4 °C 1004.3 hPa NNW 3.2 km/h 4.8 km/h 87% 0 mm 107 W/m2
13:28 -6.6 °C -8.4 °C 1004.3 hPa NNW 4.8 km/h 4.8 km/h 87% 0 mm 98 W/m2
13:38 -6.6 °C -8.3 °C 1003.9 hPa NNW 3.2 km/h 6.4 km/h 87% 0 mm 91 W/m2
13:44 -6.5 °C -8.3 °C 1003.9 hPa NNW 3.2 km/h 3.2 km/h 87% 0 mm 91 W/m2
13:50 -6.3 °C -8.2 °C 1003.6 hPa NNW 1.6 km/h 1.6 km/h 87% 0 mm 91 W/m2
14:00 -6.3 °C -8.1 °C 1003.6 hPa NNW 3.2 km/h 3.2 km/h 87% 0 mm 67 W/m2
14:06 -6.2 °C -8.1 °C 1003.6 hPa NNW 3.2 km/h 8 km/h 87% 0 mm 51 W/m2
14:14 -6.3 °C -8.1 °C 1003.3 hPa NNW 4.8 km/h 4.8 km/h 87% 0 mm 62 W/m2
14:24 -6.3 °C -8.1 °C 1003.3 hPa NNW 4.8 km/h 12.9 km/h 87% 0 mm 47 W/m2
14:30 -6.2 °C -7.9 °C 1003.3 hPa NNW 6.4 km/h 8 km/h 88% 0 mm 46 W/m2
14:36 -6.2 °C -7.9 °C 1003.3 hPa NNW 4.8 km/h 8 km/h 88% 0 mm 37 W/m2
14:42 -6.3 °C -7.9 °C 1003.3 hPa NNW 4.8 km/h 9.7 km/h 88% 0 mm 35 W/m2
14:48 -6.3 °C -7.9 °C 1003.3 hPa NW 4.8 km/h 9.7 km/h 88% 0 mm 32 W/m2
14:50 -6.3 °C -7.9 °C 1003.3 hPa NW 4.8 km/h 4.8 km/h 88% 0 mm 26 W/m2
14:56 -6.3 °C -7.9 °C 1003.3 hPa NW 3.2 km/h 4.8 km/h 88% 0 mm 23 W/m2
15:02 -6.3 °C -8 °C 1003.3 hPa NW 4.8 km/h 6.4 km/h 88% 0 mm 19 W/m2
15:12 -6.5 °C -8.2 °C 1003.3 hPa NW 6.4 km/h 6.4 km/h 88% 0 mm 14 W/m2
15:18 -6.6 °C -8.2 °C 1003.3 hPa NW 4.8 km/h 6.4 km/h 88% 0 mm 14 W/m2
15:30 -6.6 °C -8.3 °C 1003.3 hPa NW 3.2 km/h 3.2 km/h 88% 0 mm 11 W/m2
15:34 -6.7 °C -8.3 °C 1003.3 hPa NW 3.2 km/h 6.4 km/h 88% 0 mm 11 W/m2
15:40 -6.7 °C -8.4 °C 1003.3 hPa WNW 4.8 km/h 4.8 km/h 87% 0 mm 9 W/m2
15:52 -6.7 °C -8.5 °C 1003.3 hPa NW 3.2 km/h 4.8 km/h 87% 0 mm 5 W/m2
15:56 -6.7 °C -8.5 °C 1003.3 hPa WNW 3.2 km/h 4.8 km/h 87% 0 mm 5 W/m2
16:34 -6.9 °C -8.7 °C 1003.3 hPa NNW 3.2 km/h 3.2 km/h 87% 0 mm 0 W/m2
16:50 -6.9 °C -8.6 °C 1003.3 hPa WNW 3.2 km/h 3.2 km/h 88% 0 mm 0 W/m2
16:56 -6.9 °C -8.6 °C 1003.3 hPa NW 3.2 km/h 4.8 km/h 88% 0 mm 0 W/m2
17:00 -6.9 °C -8.6 °C 1003.3 hPa NNW 3.2 km/h 3.2 km/h 88% 0 mm 0 W/m2
17:08 -6.9 °C -8.6 °C 1003.3 hPa WNW 3.2 km/h 9.7 km/h 88% 0 mm 0 W/m2
17:14 -6.9 °C -8.6 °C 1002.9 hPa WNW 4.8 km/h 6.4 km/h 88% 0 mm 0 W/m2
17:20 -6.9 °C -8.6 °C 1003.3 hPa NW 4.8 km/h 4.8 km/h 88% 0 mm 0 W/m2
17:38 -7.1 °C -8.7 °C 1003.3 hPa NW 4.8 km/h 4.8 km/h 88% 0 mm 0 W/m2
17:42 -7.1 °C -8.6 °C 1003.3 hPa WNW 4.8 km/h 4.8 km/h 89% 0 mm 0 W/m2
17:46 -7.1 °C -8.6 °C 1003.3 hPa WNW 3.2 km/h 4.8 km/h 89% 0 mm 0 W/m2
17:48 -7.2 °C -8.7 °C 1003.3 hPa WNW 3.2 km/h 4.8 km/h 89% 0 mm 0 W/m2
17:52 -7.2 °C -8.8 °C 1003.3 hPa NW 3.2 km/h 4.8 km/h 88% 0 mm 0 W/m2
17:58 -7.3 °C -8.8 °C 1003.3 hPa NW 4.8 km/h 4.8 km/h 89% 0 mm 0 W/m2
18:02 -7.3 °C -8.8 °C 1003.3 hPa NW 4.8 km/h 4.8 km/h 89% 0 mm 0 W/m2
18:08 -7.4 °C -9.1 °C 1003.3 hPa NNW 4.8 km/h 9.7 km/h 88% 0 mm 0 W/m2
18:12 -7.4 °C -9.1 °C 1003.3 hPa NW 4.8 km/h 4.8 km/h 88% 0 mm 0 W/m2
18:20 -7.5 °C -9.2 °C 1003.3 hPa WNW 3.2 km/h 4.8 km/h 88% 0 mm 0 W/m2
18:26 -7.6 °C -9.2 °C 1003.3 hPa NW 3.2 km/h 4.8 km/h 88% 0 mm 0 W/m2
18:32 -7.6 °C -9.1 °C 1003.3 hPa WNW 1.6 km/h 4.8 km/h 89% 0 mm 0 W/m2
18:38 -7.6 °C -9.1 °C 1003.6 hPa NW 3.2 km/h 6.4 km/h 89% 0 mm 0 W/m2
18:44 -7.7 °C -9.2 °C 1003.6 hPa NW 3.2 km/h 9.7 km/h 89% 0 mm 0 W/m2
18:46 -7.6 °C -9.1 °C 1003.6 hPa WNW 3.2 km/h 9.7 km/h 89% 0 mm 0 W/m2
18:54 -7.7 °C -9.2 °C 1003.6 hPa WNW 3.2 km/h 9.7 km/h 89% 0 mm 0 W/m2
18:58 -7.7 °C -9.2 °C 1003.6 hPa NW 3.2 km/h 9.7 km/h 89% 0 mm 0 W/m2
19:12 -7.9 °C -9.6 °C 1003.6 hPa WNW 4.8 km/h 11.3 km/h 88% 0 mm 0 W/m2
19:18 -7.9 °C -9.6 °C 1003.6 hPa NW 4.8 km/h 11.3 km/h 88% 0 mm 0 W/m2
19:24 -8.1 °C -9.7 °C 1003.9 hPa West 4.8 km/h 6.4 km/h 88% 0 mm 0 W/m2
19:30 -8.2 °C -9.8 °C 1003.9 hPa NNW 4.8 km/h 4.8 km/h 88% 0 mm 0 W/m2
19:36 -8.2 °C -9.8 °C 1003.9 hPa NW 3.2 km/h 4.8 km/h 88% 0 mm 0 W/m2
19:44 -8.3 °C -9.9 °C 1003.9 hPa NW 3.2 km/h 3.2 km/h 88% 0 mm 0 W/m2
19:58 -8.4 °C -10.1 °C 1003.9 hPa WNW 3.2 km/h 3.2 km/h 88% 0 mm 0 W/m2
20:08 -8.6 °C -10.2 °C 1003.9 hPa NW 4.8 km/h 6.4 km/h 88% 0 mm 0 W/m2
20:14 -8.8 °C -10.4 °C 1003.9 hPa NW 4.8 km/h 4.8 km/h 88% 0 mm 0 W/m2
20:26 -8.9 °C -10.6 °C 1003.9 hPa West 1.6 km/h 8 km/h 88% 0 mm 0 W/m2
20:32 -9.1 °C -10.7 °C 1003.9 hPa NNW 3.2 km/h 3.2 km/h 88% 0 mm 0 W/m2
20:38 -9.1 °C -10.7 °C 1003.9 hPa NW 3.2 km/h 3.2 km/h 88% 0 mm 0 W/m2
20:44 -9.2 °C -10.8 °C 1004.3 hPa WNW 1.6 km/h 3.2 km/h 88% 0 mm 0 W/m2
20:50 -9.3 °C -10.9 °C 1004.3 hPa NW 3.2 km/h 3.2 km/h 88% 0 mm 0 W/m2
20:52 -9.3 °C -10.9 °C 1004.3 hPa NNW 4.8 km/h 4.8 km/h 88% 0 mm 0 W/m2
21:04 -9.6 °C -11.2 °C 1004.3 hPa WNW 4.8 km/h 8 km/h 88% 0 mm 0 W/m2
21:10 -9.7 °C -11.3 °C 1004.3 hPa NW 4.8 km/h 4.8 km/h 88% 0 mm 0 W/m2
21:18 -9.8 °C -11.4 °C 1004.3 hPa WNW 3.2 km/h 6.4 km/h 88% 0 mm 0 W/m2
21:24 -10 °C -11.8 °C 1004.3 hPa North 4.8 km/h 11.3 km/h 87% 0 mm 0 W/m2
21:30 -10.1 °C -11.9 °C 1004.3 hPa NW 4.8 km/h 4.8 km/h 87% 0 mm 0 W/m2
21:38 -10.3 °C -12.1 °C 1004.6 hPa NW 3.2 km/h 6.4 km/h 87% 0 mm 0 W/m2
21:44 -10.5 °C -12.2 °C 1004.6 hPa West 4.8 km/h 8 km/h 87% 0 mm 0 W/m2
21:54 -10.7 °C -12.4 °C 1004.6 hPa North 4.8 km/h 6.4 km/h 87% 0 mm 0 W/m2
22:00 -10.8 °C -12.6 °C 1004.6 hPa WNW 4.8 km/h 4.8 km/h 87% 0 mm 0 W/m2
22:06 -10.9 °C -12.7 °C 1004.6 hPa NW 4.8 km/h 9.7 km/h 87% 0 mm 0 W/m2
22:12 -11 °C -12.9 °C 1004.6 hPa NNW 6.4 km/h 9.7 km/h 86% 0 mm 0 W/m2
22:18 -11.1 °C -12.9 °C 1004.6 hPa NNW 4.8 km/h 9.7 km/h 86% 0 mm 0 W/m2
22:26 -11.1 °C -12.8 °C 1005 hPa NNW 3.2 km/h 4.8 km/h 87% 0 mm 0 W/m2
22:38 -11.2 °C -13.1 °C 1005 hPa NW 3.2 km/h 4.8 km/h 86% 0 mm 0 W/m2
22:46 -11.3 °C -13.2 °C 1005 hPa NW 4.8 km/h 4.8 km/h 86% 0 mm 0 W/m2
23:02 -11.5 °C -13.4 °C 1005 hPa NW 3.2 km/h 8 km/h 86% 0 mm 0 W/m2
23:08 -11.6 °C -13.4 °C 1005 hPa NW 3.2 km/h 8 km/h 86% 0 mm 0 W/m2
23:16 -11.8 °C -13.7 °C 1005 hPa NW 6.4 km/h 12.9 km/h 86% 0 mm 0 W/m2
23:22 -11.9 °C -13.8 °C 1005 hPa NW 4.8 km/h 8 km/h 86% 0 mm 0 W/m2
23:28 -12.1 °C -13.9 °C 1005.3 hPa NNW 3.2 km/h 8 km/h 86% 0 mm 0 W/m2
23:34 -12.1 °C -14 °C 1005.3 hPa NW 3.2 km/h 3.2 km/h 86% 0 mm 0 W/m2
23:40 -12.3 °C -14.1 °C 1005.3 hPa NW 3.2 km/h 3.2 km/h 86% 0 mm 0 W/m2
23:46 -12.5 °C -14.3 °C 1005.3 hPa WNW 4.8 km/h 6.4 km/h 86% 0 mm 0 W/m2
23:52 -12.7 °C -14.5 °C 1005.3 hPa WNW 3.2 km/h 4.8 km/h 86% 0 mm 0 W/m2
23:58 -12.8 °C -14.6 °C 1005.6 hPa NW 3.2 km/h 4.8 km/h 86% 0 mm 0 W/m2
Country Meadow, Clay, NY, USA
Compliments of Weather Underground - 2 mb